F4FEB-14 Weather Reports


time (UTC)temp
F
wind
direction
speed
knots
gust
knots
rain 1hr
in
rain 24hr
in
rain mn
in
humidity
%
barometer
mb
20260506184824 47 174 1.7 6.1 0.01 0.86 0.00 100 1013.2
20260506184323 47 171 2.6 6.1 0.01 0.86 0.00 100 1013.2
20260506183821 47 163 3.5 6.1 0.00 0.85 0.00 100 1013.1
20260506183320 47 171 3.5 6.1 0.00 0.85 0.00 100 1013.1
20260506182819 47 167 2.6 6.1 0.00 0.85 0.00 100 1013.1
20260506182316 47 165 2.6 7.0 0.00 0.85 0.00 100 1013.2
20260506181815 47 170 2.6 7.0 0.00 0.85 0.00 100 1013.0
20260506181314 47 168 3.5 6.1 0.03 0.85 0.00 100 1013.0
20260506180813 47 164 2.6 6.1 0.03 0.85 0.00 100 1012.9
20260506180312 47 161 3.5 5.2 0.02 0.84 0.00 100 1012.8
20260506175811 47 159 2.6 5.2 0.02 0.84 0.00 100 1012.8
20260506175310 47 167 2.6 7.0 0.01 0.83 0.00 100 1012.8
20260506174809 47 157 2.6 7.0 0.01 0.83 0.00 100 1012.7
20260506174308 47 154 3.5 7.0 0.01 0.83 0.00 100 1012.7
20260506173807 47 196 1.7 7.0 0.00 0.82 0.00 100 1012.7
20260506173306 47 162 2.6 7.0 0.00 0.82 0.00 100 1012.7
20260506172804 47 163 3.5 7.0 0.00 0.82 0.00 100 1012.7
20260506172306 47 159 2.6 5.2 0.00 0.82 0.00 100 1012.6
20260506171801 47 164 2.6 8.7 0.00 0.82 0.00 100 1012.5
20260506171300 47 162 3.5 8.7 0.06 0.82 0.00 100 1012.5
20260506170758 47 150 2.6 7.0 0.06 0.82 0.00 100 1012.4
20260506170257 47 158 3.5 7.8 0.06 0.82 0.00 100 1012.3
20260506165755 47 176 2.6 7.8 0.05 0.81 0.00 100 1012.4
20260506165254 47 173 3.5 7.0 0.05 0.81 0.00 100 1012.4
20260506164752 47 175 2.6 7.8 0.05 0.81 0.00 100 1012.4
20260506164251 48 165 4.3 8.7 0.05 0.81 0.00 100 1012.5
20260506163750 48 242 0.9 9.6 0.04 0.80 0.00 100 1012.5
20260506163248 48 222 1.7 9.6 0.04 0.80 0.00 100 1012.5
20260506162747 48 161 2.6 7.0 0.02 0.78 0.00 100 1012.5
20260506162246 49 171 1.7 8.7 0.00 0.76 0.00 100 1012.4
20260506161745 50 176 3.5 9.6 0.00 0.76 0.00 100 1012.3
20260506161241 50 270 3.5 9.6 0.03 0.75 0.00 100 1012.2
20260506160740 51 174 3.5 7.8 0.02 0.74 0.00 100 1011.8
20260506155737 51 192 3.5 9.6 0.02 0.74 0.00 100 1011.8
20260506155236 51 172 3.5 11.3 0.02 0.74 0.00 100 1011.7
20260506154735 51 168 4.3 11.3 0.02 0.74 0.00 100 1011.7
20260506154234 51 176 2.6 7.0 0.02 0.74 0.00 100 1011.7
20260506153733 51 157 2.6 7.0 0.01 0.73 0.00 100 1011.7
20260506153231 51 166 2.6 7.0 0.01 0.73 0.00 100 1011.6
20260506152730 51 169 2.6 5.2 0.01 0.73 0.00 100 1011.6
20260506152229 51 175 2.6 5.2 0.00 0.72 0.00 100 1011.6
20260506151727 51 167 1.7 5.2 0.00 0.72 0.00 100 1011.5
20260506151226 51 161 1.7 4.3 0.02 0.72 0.00 100 1011.5
20260506150725 51 171 1.7 4.3 0.02 0.72 0.00 100 1011.5
20260506150224 51 166 2.6 4.3 0.01 0.72 0.00 100 1011.5
20260506145723 51 163 1.7 5.2 0.01 0.72 0.00 100 1011.5
20260506145221 51 162 1.7 5.2 0.01 0.72 0.00 100 1011.5
20260506144720 51 170 2.6 5.2 0.00 0.71 0.00 100 1011.6
20260506144219 52 173 1.7 5.2 0.00 0.71 0.00 100 1011.6
20260506143718 52 158 1.7 3.5 0.00 0.71 0.00 100 1011.6
20260506142214 51 181 1.7 7.0 0.00 0.71 0.00 100 1011.7
20260506141714 51 155 3.5 8.7 0.00 0.71 0.00 100 1011.7
20260506141212 51 169 3.5 10.4 0.01 0.71 0.00 100 1011.7
20260506140712 52 186 2.6 10.4 0.01 0.71 0.00 100 1011.7
20260506135710 52 194 3.5 7.8 0.00 0.70 0.00 100 1011.6
20260506134707 52 177 2.6 8.7 0.00 0.70 0.00 100 1011.7
20260506134205 52 166 2.6 10.4 0.00 0.70 0.00 100 1011.7
20260506133202 52 172 4.3 9.6 0.00 0.70 0.00 100 1011.6
20260506132701 52 170 2.6 10.4 0.00 0.70 0.00 100 1011.6
20260506132200 52 169 5.2 11.3 0.00 0.70 0.00 100 1011.6
20260506131658 52 171 4.3 11.3 0.00 0.70 0.00 100 1011.6
20260506131155 52 167 4.3 13.0 0.01 0.70 0.00 100 1011.6
20260506130655 52 159 4.3 13.0 0.01 0.70 0.00 100 1011.6
20260506130154 53 183 4.3 10.4 0.01 0.70 0.00 100 1011.6
20260506125653 53 194 2.6 10.4 0.01 0.70 0.00 100 1011.6
20260506125152 53 173 4.3 10.4 0.01 0.70 0.00 100 1011.5
20260506124650 52 165 4.3 10.4 0.01 0.70 0.00 100 1011.5
20260506124148 52 166 4.3 13.0 0.01 0.70 0.00 100 1011.5
20260506123646 51 168 5.2 12.2 0.01 0.70 0.00 100 1011.6
20260506123145 51 167 5.2 10.4 0.01 0.70 0.00 100 1011.5
20260506122644 51 176 4.3 12.2 0.01 0.70 0.00 100 1011.6
20260506122144 51 169 4.3 9.6 0.00 0.69 0.00 100 1011.6
20260506121642 50 172 3.5 9.6 0.00 0.69 0.00 100 1011.5
20260506121141 50 171 4.3 10.4 0.08 0.68 0.00 100 1011.5
20260506120640 50 166 3.5 10.4 0.07 0.67 0.00 100 1011.6
20260506115638 50 165 5.2 9.6 0.05 0.65 0.00 100 1011.5
20260506115136 50 198 3.5 7.0 0.05 0.65 0.00 100 1011.5
20260506114635 50 216 1.7 7.8 0.04 0.63 0.00 100 1011.5
20260506114134 50 172 2.6 8.7 0.03 0.62 0.00 100 1011.5
20260506113632 50 166 2.6 9.6 0.02 0.62 0.00 100 1011.4
20260506113130 50 170 2.6 10.4 0.01 0.61 0.00 100 1011.3
20260506112126 50 174 3.5 10.4 0.00 0.60 0.00 100 1011.4
20260506111625 50 163 4.3 10.4 0.00 0.60 0.00 100 1011.3
20260506111123 50 164 3.5 10.4 0.09 0.58 0.00 100 1011.5
20260506110621 51 174 3.5 7.8 0.09 0.58 0.00 100 1011.4
20260506110119 51 190 3.5 7.0 0.08 0.57 0.00 100 1011.4
20260506105117 50 178 1.7 6.1 0.07 0.56 0.00 100 1011.4
20260506104616 50 234 0.9 2.6 0.07 0.56 0.00 100 1011.3
20260506104115 50 304 0.0 5.2 0.06 0.55 0.00 100 1011.4
20260506103614 50 127 1.7 5.2 0.05 0.54 0.00 100 1011.4
20260506103113 50 219 0.9 2.6 0.05 0.53 0.00 100 1011.4
20260506102612 49 178 0.9 2.6 0.04 0.53 0.00 100 1011.4
20260506102111 49 234 0.9 5.2 0.01 0.50 0.00 100 1011.3
20260506101610 49 347 0.9 5.2 0.00 0.49 0.00 100 1011.2
20260506101109 49 257 0.9 5.2 0.22 0.45 0.00 100 1011.2
20260506100606 49 183 0.9 6.1 0.21 0.44 0.00 100 1011.0
20260506095601 49 172 2.6 6.1 0.17 0.41 0.00 100 1010.9
20260506095100 49 164 2.6 5.2 0.14 0.38 0.00 100 1010.7
20260506094559 49 216 0.9 7.0 0.11 0.34 0.00 100 1010.7
20260506094057 49 245 1.7 7.8 0.08 0.32 0.00 100 1010.7
20260506093556 49 167 3.5 7.8 0.05 0.29 0.00 100 1010.5
20260506092053 50 160 3.5 8.7 0.01 0.24 0.00 100 1010.4
20260506091549 50 218 1.7 8.7 0.00 0.24 0.00 100 1010.4
20260506091045 50 166 3.5 8.7 0.11 0.22 0.00 100 1010.3
20260506090539 50 199 3.5 10.4 0.11 0.22 0.00 100 1010.2
20260506090035 50 170 4.3 9.6 0.10 0.21 0.00 100 1010.1
20260506085531 50 197 2.6 8.7 0.09 0.20 0.00 100 1010.1
20260506085031 50 183 2.6 8.7 0.07 0.18 0.00 100 1010.0
20260506084529 50 205 2.6 10.4 0.07 0.18 0.00 100 1009.9
20260506084020 50 189 4.3 11.3 0.05 0.16 0.00 100 1009.9
20260506083017 50 185 2.6 9.6 0.04 0.14 0.00 100 1009.8
20260506082516 50 172 3.5 7.8 0.03 0.14 0.00 100 1009.7
20260506082016 50 158 2.6 8.7 0.01 0.12 0.00 100 1009.7
20260506081515 50 211 2.6 9.6 0.00 0.11 0.00 100 1009.6
20260506081013 50 172 4.3 9.6 0.08 0.09 0.00 100 1009.6
20260506080513 51 169 2.6 7.8 0.06 0.07 0.00 100 1009.5
20260506072503 52 278 0.0 1.7 0.01 0.02 0.00 100 1009.2
20260506072003 52 259 0.9 2.6 0.00 0.01 0.00 100 1009.0
20260506071502 52 316 0.0 2.6 0.00 0.01 0.00 100 1008.9
20260506061947 52 210 0.0 3.5 0.00 0.00 0.00 100 1009.1
20260506061446 51 170 1.7 3.5 0.00 0.00 0.00 100 1009.1
20260506060444 51 131 0.0 4.3 0.00 0.00 0.00 100 1009.1
20260506050415 49 216 0.9 2.6 0.00 0.17 0.00 100 1009.2
20260506044912 49 243 0.0 4.3 0.00 0.17 0.00 100 1009.2
20260506043909 49 244 0.0 2.6 0.00 0.17 0.00 100 1009.1
20260506043407 49 210 0.9 3.5 0.00 0.17 0.00 100 1009.1
20260506042906 48 196 0.9 3.5 0.00 0.17 0.00 100 1009.1
20260506042404 48 169 0.9 2.6 0.00 0.17 0.00 100 1009.1
20260506041902 48 184 0.9 1.7 0.00 0.17 0.00 100 1009.2
20260506041401 48 179 0.9 3.5 0.00 0.17 0.00 100 1009.2
20260506040859 48 176 1.7 3.5 0.00 0.17 0.00 100 1009.1
20260506040358 48 183 0.9 2.6 0.00 0.17 0.00 100 1009.2
20260506035856 48 169 1.7 2.6 0.00 0.17 0.00 100 1009.1
20260506035355 48 164 0.9 2.6 0.00 0.17 0.00 100 1009.0
20260506034853 48 176 0.0 2.6 0.00 0.17 0.00 100 1009.0
20260506034352 48 170 0.9 2.6 0.00 0.17 0.00 100 1009.1
20260506033851 48 158 0.9 1.7 0.00 0.17 0.00 100 1009.1
20260506033350 48 175 0.9 2.6 0.00 0.17 0.00 100 1009.2
20260506032848 49 199 0.0 2.6 0.00 0.17 0.00 100 1009.1
20260506032347 49 171 1.7 2.6 0.00 0.17 0.00 100 1009.2
20260506030843 49 167 1.7 2.6 0.00 0.17 0.00 100 1009.3
20260506030341 49 175 0.9 3.5 0.00 0.17 0.00 100 1009.5
20260506025840 49 174 1.7 5.2 0.00 0.17 0.00 100 1009.6
20260506025338 49 167 2.6 5.2 0.00 0.17 0.00 100 1009.7
20260506024836 49 174 2.6 3.5 0.00 0.17 0.00 100 1009.6
20260506023331 48 161 0.9 2.6 0.00 0.17 0.00 100 1009.7
20260506022831 49 161 0.9 2.6 0.00 0.17 0.00 100 1009.8
20260506022330 49 163 0.0 2.6 0.00 0.17 0.00 100 1009.8
20260506021828 49 262 0.9 2.6 0.00 0.17 0.00 100 1009.8
20260506021328 49 178 1.7 2.6 0.00 0.17 0.00 100 1009.9
20260506020826 49 164 0.9 1.7 0.00 0.17 0.00 100 1009.9
20260506020326 49 173 0.0 0.9 0.00 0.17 0.00 100 1009.9
20260506015823 49 277 0.0 0.9 0.00 0.17 0.00 100 1010.0
20260506014819 49 165 0.9 1.7 0.00 0.17 0.00 100 1010.1
20260506014317 49 224 0.0 1.7 0.00 0.17 0.00 100 1010.2
20260506013817 49 250 0.0 2.6 0.00 0.17 0.00 100 1010.2
20260506013316 49 174 0.9 3.5 0.00 0.17 0.00 100 1010.2
20260506012815 49 200 0.0 3.5 0.00 0.17 0.00 100 1010.3
20260506012313 49 170 0.9 2.6 0.00 0.17 0.00 100 1010.3
20260506011812 49 189 0.0 1.7 0.00 0.17 0.00 100 1010.3
20260506011312 49 254 0.0 1.7 0.00 0.17 0.00 100 1010.4
20260506010811 49 240 0.0 3.5 0.00 0.17 0.00 100 1010.6
20260506010309 49 206 0.9 3.5 0.00 0.17 0.00 100 1010.6
20260506005806 49 163 1.7 4.3 0.00 0.17 0.00 100 1010.6
20260506004802 50 175 2.6 7.8 0.00 0.17 0.00 100 1010.8
20260506004302 50 175 2.6 7.0 0.00 0.17 0.00 100 1010.8
20260506003800 50 211 2.6 7.0 0.00 0.17 0.00 100 1010.9
20260506002757 50 165 3.5 7.8 0.00 0.17 0.00 100 1010.9
20260506002257 50 167 2.6 7.0 0.00 0.17 0.00 100 1010.9
20260506001756 51 163 3.5 8.7 0.00 0.17 0.00 100 1010.9
20260506001255 51 179 2.6 9.6 0.00 0.17 0.00 100 1010.9
20260506000254 52 169 3.5 9.6 0.02 0.17 0.00 100 1011.1
20260505235752 52 165 3.5 12.2 0.02 0.17 0.00 100 1011.1
20260505234749 52 197 4.3 12.2 0.01 0.16 0.00 100 1011.2
20260505234248 52 177 4.3 11.3 0.01 0.16 0.00 100 1011.4
20260505233746 52 161 4.3 11.3 0.00 0.15 0.00 100 1011.4
20260505232745 52 171 2.6 8.7 0.00 0.15 0.00 100 1011.5
20260505232244 52 173 3.5 8.7 0.00 0.15 0.00 100 1011.5
20260505231743 51 187 2.6 8.7 0.00 0.15 0.00 100 1011.4
20260505231242 51 190 1.7 6.1 0.00 0.15 0.00 100 1011.5
20260505230741 51 223 1.7 6.1 0.00 0.15 0.00 100 1011.5
20260505230240 50 201 1.7 7.8 0.00 0.15 0.00 100 1011.5
20260505225738 50 173 3.5 7.8 0.00 0.15 0.00 100 1011.4
20260505225238 49 182 2.6 7.0 0.00 0.15 0.00 100 1011.5
20260505224736 48 278 0.9 5.2 0.00 0.15 0.00 100 1011.5
20260505224234 47 252 0.9 3.5 0.00 0.15 0.00 100 1011.5
20260505223733 47 255 0.9 3.5 0.00 0.15 0.00 100 1011.5
20260505223232 48 181 1.7 3.5 0.00 0.15 0.00 100 1011.6
20260505222730 48 224 0.0 2.6 0.00 0.15 0.00 100 1011.4
20260505222229 47 217 0.0 0.9 0.00 0.15 0.00 100 1011.5
20260505221728 47 241 0.0 2.6 0.00 0.15 0.00 100 1011.5
20260505220726 47 166 1.7 2.6 0.00 0.15 0.00 100 1011.5
20260505220225 46 189 0.9 1.7 0.00 0.15 0.00 100 1011.4
20260505215724 46 209 0.0 2.6 0.00 0.15 0.00 100 1011.4
20260505215223 46 185 0.9 2.6 0.00 0.15 0.00 100 1011.4
20260505214721 46 198 0.9 2.6 0.00 0.15 0.00 100 1011.4
20260505214220 46 236 0.9 2.6 0.00 0.15 0.00 100 1011.4
20260505213719 46 151 1.7 2.6 0.00 0.15 0.00 100 1011.3
20260505213218 46 174 0.9 3.5 0.00 0.15 0.00 100 1011.4
20260505212717 46 179 0.9 3.5 0.00 0.15 0.00 100 1011.5
20260505212216 47 254 0.9 2.6 0.00 0.15 0.00 100 1011.5
20260505211716 47 174 1.7 2.6 0.00 0.15 0.00 100 1011.4
20260505211213 47 192 0.9 2.6 0.00 0.15 0.00 100 1011.5
20260505210210 47 181 1.7 3.5 0.00 0.15 0.00 100 1011.5
20260505205708 47 173 1.7 3.5 0.00 0.15 0.00 100 1011.5
20260505204706 48 175 1.7 2.6 0.00 0.15 0.00 100 1011.5
20260505204205 48 165 0.9 1.7 0.00 0.15 0.00 100 1011.4
20260505203202 48 220 0.0 2.6 0.00 0.15 0.00 100 1011.5
20260505202700 48 176 1.7 2.6 0.00 0.15 0.00 100 1011.5
20260505202200 48 172 1.7 2.6 0.00 0.15 0.00 100 1011.5
20260505201659 48 171 0.9 2.6 0.00 0.15 0.00 100 1011.5
20260505201157 48 190 0.9 2.6 0.00 0.15 0.00 100 1011.4
20260505200656 48 175 0.9 2.6 0.00 0.15 0.00 100 1011.3
20260505200154 48 198 0.9 2.6 0.00 0.15 0.00 100 1011.3
20260505195653 48 174 0.9 1.7 0.00 0.15 0.00 100 1011.3
20260505194649 48 183 0.9 2.6 0.00 0.15 0.00 100 1011.3
20260505194147 49 270 0.0 2.6 0.00 0.15 0.00 100 1011.1
20260505193645 49 173 1.7 3.5 0.00 0.15 0.00 100 1011.0
20260505193143 49 254 0.9 3.5 0.00 0.15 0.00 100 1011.1
20260505192642 49 170 1.7 3.5 0.00 0.15 0.00 100 1010.9
20260505192141 50 162 2.6 3.5 0.00 0.15 0.00 100 1010.6
20260505191640 50 166 0.9 2.6 0.00 0.15 0.00 100 1010.6
20260505191137 50 178 1.7 2.6 0.00 0.15 0.00 100 1010.6
20260505190637 50 173 1.7 2.6 0.00 0.15 0.00 100 1010.6
20260505190135 50 179 0.9 0.9 0.00 0.15 0.00 100 1010.6